sat.trackr.live / text

‹ back to catalog

HULIANWANG DIGUI-150

NORAD 67526 · 2026-013E

PAYLOAD ACTIVE UNKNOWN

§ Identity

Operator
Country
PRC
Launch date
2026-01-19
Launch site
WSC
Launch vehicle
Mass (kg)
RCS (m²)

External: N2YO · Heavens-Above · Gunter

§ Orbital elements

Epoch: 2026-05-25T04:30:03.940704Z

Period
108.33 min
Inclination
50.0049°
Eccentricity
0.0000927
Mean motion
13.29327462 rev/d
Perigee alt
1,148.6 km
Apogee alt
1,150.0 km
Semi-major
7,527.4 km
B*
8.7290e-5
RAAN
77.9725°
Arg perigee
26.6810°
Mean anomaly
333.4110°
Rev number
1,701

§ Raw data

HULIANWANG DIGUI-1501 67526U 26013E   26145.18754561 -.00000084  00000+0  87290-4 0  99952 67526  50.0049  77.9725 0000927  26.6810 333.4110 13.29327462 17017

JSON: /api/v1/satellites/67526 · /tle

For live sub-satellite position, see the globe view (requires WebGL).

§ Visibility from observer

Set your observer location to see the next 7 days of passes ≥ 10°. The values pass through the URL so the page stays shareable.

No JS? Fill the form by hand. The geolocation button needs JavaScript.